Location: Utrecht
(52.0907°N, 5.1214°E)
Time: 03:02:25
(UTC+02:00)

KKS-1 - Pass Details

Date: 28 June 2022
Orbit: 634 x 649 km, 98.2° (Epoch: 15 August)

Event Time Altitude Azimuth Distance (km) Brightness Sun altitude
Rises 01:19:58 0° 4° (N) 2,982 ? -14.5°
Reaches altitude 10° 01:22:41 10° 348° (NNW) 2,066 ? -14.5°
Maximum altitude 01:25:52 19° 303° (WNW) 1,532 ? -14.5°
Drops below altitude 10° 01:29:02 10° 257° (WSW) 2,053 ? -14.6°
Sets 01:31:44 0° 241° (WSW) 2,957 ? -14.6°
Enters shadow 01:31:48 - 240° (WSW) 2,983 ? -14.6°
